FW4468 Weather Reports


Display with metric or nautical units.
time (UTC)temp
F
wind
direction
speed
MPH
gust
MPH
rain 1hr
in
rain 24hr
in
rain mn
in
humidity
%
barometer
mb
20260506011550 64 155 1.0 6.0 0.00 0.00 0.00 56 1013.8
20260506010053 64 94 0.0 3.0 0.00 0.00 0.00 56 1013.7
20260506004551 65 160 1.0 9.0 0.00 0.00 0.00 54 1013.8
20260506003047 65 135 2.0 7.0 0.00 0.00 0.00 53 1013.8
20260506001551 66 130 2.0 8.0 0.00 0.00 0.00 53 1013.9
20260506000046 66 123 2.0 9.0 0.00 0.00 0.00 52 1014.0
20260505234545 67 142 2.0 7.0 0.00 0.00 0.00 50 1014.2
20260505233044 67 150 1.0 6.0 0.00 0.00 0.00 50 1014.3
20260505231544 68 146 3.0 9.0 0.00 0.00 0.00 50 1014.4
20260505230048 68 64 2.0 8.0 0.00 0.00 0.00 49 1014.5
20260505224546 68 118 1.0 6.0 0.00 0.00 0.00 51 1014.6
20260505223039 67 67 1.0 7.0 0.00 0.00 0.00 52 1014.7
20260505221538 67 169 1.0 6.0 0.00 0.00 0.00 50 1014.8
20260505220137 67 191 1.0 9.0 0.00 0.00 0.00 50 1014.8
20260505214537 68 141 3.0 8.0 0.00 0.00 0.00 50 1015.0
20260505213038 67 177 2.0 10.0 0.00 0.00 0.00 50 1015.1
20260505211536 67 137 2.0 9.0 0.00 0.00 0.00 50 1015.2
20260505210030 67 187 2.0 8.0 0.00 0.00 0.00 51 1015.1
20260505204532 65 212 3.0 8.0 0.00 0.00 0.00 52 1015.2
20260505203027 64 105 1.0 8.0 0.00 0.00 0.00 55 1015.3
20260505201519 63 160 2.0 5.0 0.00 0.00 0.00 54 1015.3
20260505200017 62 74 1.0 8.0 0.00 0.00 0.00 57 1015.2
20260505194516 62 194 2.0 7.0 0.00 0.00 0.00 56 1015.3
20260505193012 60 169 0.0 6.0 0.00 0.00 0.00 60 1015.4
20260505191509 60 128 1.0 5.0 0.00 0.00 0.00 59 1015.3
20260505190014 60 216 1.0 5.0 0.00 0.00 0.00 59 1015.3
20260505184506 59 255 2.0 8.0 0.00 0.00 0.00 59 1015.3
20260505183004 59 175 2.0 6.0 0.00 0.00 0.00 59 1015.3
20260505181502 58 220 0.0 6.0 0.00 0.00 0.00 60 1015.2
20260505180107 58 174 0.0 5.0 0.00 0.00 0.00 60 1015.2
20260505174558 57 249 1.0 7.0 0.00 0.00 0.00 61 1015.2
20260505173054 57 212 1.0 8.0 0.00 0.00 0.00 62 1015.1
20260505171553 56 209 0.0 4.0 0.00 0.00 0.00 63 1015.0
20260505170050 56 155 1.0 6.0 0.00 0.00 0.00 62 1014.9
20260505164549 56 291 1.0 9.0 0.00 0.00 0.00 62 1014.9
20260505163048 55 256 1.0 5.0 0.00 0.00 0.00 62 1014.7
20260505161546 55 139 2.0 5.0 0.00 0.00 0.00 63 1014.8
20260505153047 54 227 0.0 4.0 0.00 0.00 0.00 64 1014.7
20260505151541 54 156 0.0 7.0 0.00 0.00 0.00 64 1014.6
20260505124529 54 99 0.0 3.0 0.00 0.00 0.00 67 1012.8
20260505123027 53 146 0.0 5.0 0.00 0.00 0.00 67 1012.8
20260505121527 53 181 0.0 3.0 0.00 0.00 0.00 67 1012.6
20260505120039 53 145 0.0 3.0 0.00 0.00 0.00 67 1012.7
20260505114525 53 175 0.0 4.0 0.00 0.00 0.00 67 1012.6
20260505113024 53 155 2.0 6.0 0.00 0.00 0.00 68 1012.6
20260505111530 53 112 2.0 7.0 0.00 0.00 0.00 68 1012.5
20260505101516 52 128 0.0 3.0 0.00 0.00 0.00 69 1011.9
20260505100025 52 131 0.0 4.0 0.00 0.00 0.00 69 1012.0
20260505094517 53 140 0.0 3.0 0.00 0.00 0.00 69 1012.0
20260505093111 53 146 0.0 4.0 0.00 0.00 0.00 68 1011.8
20260505091511 53 74 0.0 3.0 0.00 0.00 0.00 68 1011.9
20260505090006 53 138 0.0 3.0 0.00 0.00 0.00 68 1011.7
20260505084508 53 149 0.0 4.0 0.00 0.00 0.00 67 1011.5
20260505083002 54 137 0.0 4.0 0.00 0.00 0.00 67 1011.5
20260505081605 54 128 0.0 4.0 0.00 0.00 0.00 67 1011.5
20260505080105 54 128 0.0 4.0 0.00 0.00 0.00 67 1011.3
20260505074556 54 159 0.0 5.0 0.00 0.00 0.00 67 1011.4
20260505073059 55 180 1.0 7.0 0.00 0.00 0.00 67 1011.2
20260505071605 55 137 1.0 5.0 0.00 0.00 0.00 66 1011.0
20260505070052 56 153 1.0 7.0 0.00 0.00 0.00 66 1011.1
20260505064545 56 159 3.0 7.0 0.00 0.00 0.00 66 1010.6
20260505063050 57 135 0.0 7.0 0.00 0.00 0.00 65 1010.6
20260505061540 57 120 2.0 9.0 0.00 0.00 0.00 64 1010.6
20260505060054 58 143 2.0 8.0 0.00 0.00 0.00 64 1010.4
20260505054536 59 166 2.0 8.0 0.00 0.00 0.00 63 1010.2
20260505053037 60 189 3.0 7.0 0.00 0.00 0.00 61 1010.0
20260505051530 61 122 1.0 8.0 0.00 0.00 0.00 60 1009.9
20260505041523 63 269 0.0 2.0 0.00 0.00 0.00 49 1009.4
20260505040024 64 5 0.0 1.0 0.00 0.00 0.00 48 1009.1
20260505034521 65 5 0.0 0.0 0.00 0.00 0.00 46 1009.0
20260505033021 67 5 0.0 0.0 0.00 0.00 0.00 43 1008.8
20260505031520 68 5 0.0 0.0 0.00 0.00 0.00 40 1008.7
20260505030020 69 5 0.0 2.0 0.00 0.00 0.00 37 1008.6
20260505024519 70 5 0.0 1.0 0.00 0.00 0.00 35 1008.5
20260505023018 71 71 1.0 4.0 0.00 0.00 0.00 35 1008.4
20260505021517 72 71 1.0 4.0 0.00 0.00 0.00 36 1008.5
20260505020023 73 57 0.0 5.0 0.00 0.00 0.00 35 1008.4
20260505014530 74 67 2.0 5.0 0.00 0.00 0.00 34 1008.4
20260505013015 75 57 2.0 7.0 0.00 0.00 0.00 35 1008.4